Location: Houhaj�rvi
(61.2833°N, 23.0000°E)
Time: 09:16:34
(UTC+00:00)

Lacrosse 5 rocket - Pass Details

Date: 27 February 2020
Orbit: 461 x 636 km, 57.0° (Epoch: 03 April)

Event Time Altitude Azimuth Distance (km) Brightness Sun altitude
Rises 17:01:48 0° 271° (W) 2,854 7.4 -9.8°
Reaches altitude 10° 17:04:07 10° 265° (W) 1,973 5.8 -10.1°
Maximum altitude 17:08:24 44° 194° (SSW) 867 2.4 -10.6°
Enters shadow 17:12:34 11° 124° (ESE) 1,927 3.6 -11.1°
